TimeEDT,TemperatureF,Dew PointF,Humidity,Sea Level PressureIn,VisibilityMPH,Wind Direction,Wind SpeedMPH,Gust SpeedMPH,PrecipitationIn,Events,Conditions,WindDirDegrees,DateUTC
12:17 AM,46.9,43.2,87,30.16,10.0,North,12.7,-,N/A,,Mostly Cloudy,360,2013-09-13 04:17:00
12:37 AM,46.6,42.1,84,30.16,10.0,North,12.7,18.4,N/A,,Overcast,360,2013-09-13 04:37:00
12:56 AM,46.4,40.3,79,30.16,10.0,North,13.8,18.4,N/A,,Overcast,10,2013-09-13 04:56:00
1:17 AM,45.9,40.1,80,30.16,10.0,North,15.0,21.9,N/A,,Overcast,10,2013-09-13 05:17:00
1:37 AM,45.9,39.6,79,30.17,10.0,North,12.7,-,N/A,,Overcast,360,2013-09-13 05:37:00
1:56 AM,45.5,38.7,77,30.17,10.0,North,9.2,-,N/A,,Overcast,350,2013-09-13 05:56:00
2:17 AM,45.0,39.0,80,30.17,10.0,North,9.2,-,N/A,,Overcast,350,2013-09-13 06:17:00
2:36 AM,44.8,39.2,81,30.18,10.0,North,6.9,-,N/A,,Overcast,350,2013-09-13 06:36:00
2:57 AM,45.0,38.7,79,30.18,10.0,North,10.4,-,N/A,,Overcast,350,2013-09-13 06:57:00
3:17 AM,45.1,38.7,78,30.18,10.0,NNW,6.9,-,N/A,,Overcast,340,2013-09-13 07:17:00
3:36 AM,45.0,39.2,80,30.18,10.0,North,5.8,-,N/A,,Overcast,350,2013-09-13 07:36:00
3:57 AM,45.1,38.3,77,30.18,10.0,North,9.2,-,N/A,,Overcast,350,2013-09-13 07:57:00
4:17 AM,45.5,37.2,73,30.18,10.0,North,10.4,-,N/A,,Overcast,350,2013-09-13 08:17:00
4:36 AM,45.5,37.6,74,30.18,10.0,NNW,6.9,-,N/A,,Overcast,340,2013-09-13 08:36:00
4:57 AM,45.0,37.6,75,30.19,10.0,North,6.9,-,N/A,,Overcast,350,2013-09-13 08:57:00
5:17 AM,44.2,38.3,80,30.19,10.0,NW,3.5,-,N/A,,Overcast,320,2013-09-13 09:17:00
5:36 AM,43.7,37.9,80,30.20,10.0,NW,5.8,-,N/A,,Overcast,320,2013-09-13 09:36:00
5:57 AM,43.7,38.7,82,30.20,10.0,NNW,4.6,-,N/A,,Overcast,340,2013-09-13 09:57:00
6:55 AM,44.6,39.2,81,30.21,10.0,North,8.1,-,N/A,,Mostly Cloudy,360,2013-09-13 10:55:00
7:50 AM,42.8,37.4,81,30.22,10.0,North,12.7,18.4,N/A,,Clear,10,2013-09-13 11:50:00
8:50 AM,46.4,37.4,71,30.22,10.0,NNE,12.7,-,N/A,,Clear,20,2013-09-13 12:50:00
9:55 AM,48.2,37.4,66,30.22,10.0,NNE,17.3,25.3,N/A,,Clear,20,2013-09-13 13:55:00
10:55 AM,50.0,37.4,62,30.24,10.0,NNE,15.0,26.5,N/A,,Clear,30,2013-09-13 14:55:00
11:50 AM,50.0,39.2,66,30.24,10.0,North,17.3,-,N/A,,Scattered Clouds,360,2013-09-13 15:50:00
12:55 PM,51.8,39.2,62,30.24,10.0,North,13.8,19.6,N/A,,Clear,10,2013-09-13 16:55:00
1:50 PM,51.8,39.2,62,30.23,10.0,NE,16.1,-,N/A,,Partly Cloudy,40,2013-09-13 17:50:00
2:50 PM,53.6,39.2,58,30.21,10.0,NNE,12.7,-,N/A,,Partly Cloudy,30,2013-09-13 18:50:00
3:50 PM,55.4,39.2,54,30.20,10.0,NNE,9.2,-,N/A,,Partly Cloudy,20,2013-09-13 19:50:00
4:50 PM,55.4,39.2,54,30.19,10.0,North,5.8,-,N/A,,Partly Cloudy,360,2013-09-13 20:50:00
5:50 PM,53.6,37.4,54,30.19,10.0,NE,8.1,-,N/A,,Clear,50,2013-09-13 21:50:00
6:55 PM,53.6,39.2,58,30.18,10.0,NE,6.9,-,N/A,,Clear,50,2013-09-13 22:55:00
7:50 PM,51.8,41.0,67,30.17,10.0,Calm,Calm,-,N/A,,Clear,0,2013-09-13 23:50:00
8:55 PM,48.2,41.0,76,30.17,10.0,Calm,Calm,-,N/A,,Clear,0,2013-09-14 00:55:00
9:50 PM,44.6,39.2,81,30.15,10.0,Calm,Calm,-,N/A,,Clear,0,2013-09-14 01:50:00
10:17 PM,43.7,39.2,84,30.14,10.0,Calm,Calm,-,N/A,,Clear,0,2013-09-14 02:17:00
10:36 PM,42.4,38.5,86,30.14,10.0,Calm,Calm,-,N/A,,Clear,0,2013-09-14 02:36:00
10:57 PM,42.8,38.7,85,30.13,10.0,Calm,Calm,-,N/A,,Clear,0,2013-09-14 02:57:00
11:16 PM,41.9,38.1,86,30.13,10.0,Calm,Calm,-,N/A,,Clear,0,2013-09-14 03:16:00
11:37 PM,40.1,36.5,87,30.13,10.0,Calm,Calm,-,N/A,,Clear,0,2013-09-14 03:37:00
11:56 PM,40.1,37.4,90,30.13,10.0,Calm,Calm,-,N/A,,Clear,0,2013-09-14 03:56:00